ECHOSTAR 17

Last updated on Mon Oct 14 2024 00:02:39 GMT+0000 (Coordinated Universal Time)

1 38551U 12035A 24287.45676968 -.00000076 00000+0 00000+0 0 9999 2 38551 0.0039 110.7120 0002245 94.7969 234.3617 1.00270220 44924
UTC large
Height (km)
Speed (km/s)
/
Latitude / Longitude
Inclination (degrees)
Orbital Period (minutes)
Azimuth
Elevation
Range (km)
Doppler Factor

Next 0 passes for location: London (51.5072 / 0.1276)

Sorry there are no passes over London.